[[{"header":{"parameterUnit":"m.s-1","parameterCategory":1,"la1":30.2991,"la2":30.254,"lo1":-89.0895,"lo2":-89.0444,"dy":0.0017,"dx":0.0017,"nx":28,"ny":28,"refTime":"2024-06-04T03:00:00:Z","depth":0,"parameterNumber":2,"parameterNumberName":"U-component_of_WINDS"},"data":[0,0,0,0,0,0,0,0,0,0,0,0,0,0,0,0,0,0,0,0,0,0,0,0,0,0,0,0,0,0,0,0,0,0,0,0,0,0,0,0,0,0,0,0,0,0,0,0,0,0,0,0,0,0,0,0,0,0,-0.8251,-0.825,0,-0.8218,-0.8218,-0.8218,-0.8203,-0.8203,-0.8203,-0.8203,-0.8167,-0.8166,-0.8165,0,0,0,0,0,0,0,0,0,0,0,0,0,-0.8298,-0.8297,-0.8251,-0.825,-0.825,-0.8219,-0.8218,-0.8218,-0.8203,-0.8203,-0.8203,-0.8203,-0.8168,-0.8166,-0.8165,0,0,0,0,0,0,0,0,0,0,0,0,0,-0.8273,-0.8297,-0.8251,-0.8239,-0.8237,-0.8219,-0.8218,-0.8218,-0.8203,-0.8203,-0.8203,-0.8203,-0.8168,-0.8167,-0.8165,-0.8155,0,0,-0.8161,-0.816,0,0,0,0,0,0,0,0,-0.8274,-0.8271,-0.8241,-0.824,-0.8238,-0.8215,-0.8222,-0.8196,-0.8203,-0.8216,-0.8203,-0.8203,-0.8183,-0.818,-0.8174,-0.8153,-0.8152,-0.816,-0.816,-0.8159,-0.8159,0,0,0,0,0,0,0,-0.8276,-0.8272,-0.8238,-0.824,-0.8239,-0.8234,-0.8231,-0.8217,-0.8199,-0.8215,-0.8214,-0.821,-0.8182,-0.8175,-0.8173,-0.8151,-0.8161,-0.8159,-0.8158,-0.8158,-0.8122,-0.8121,0,0,0,0,0,0,-0.828,-0.8274,-0.8239,-0.8237,-0.8257,-0.8234,-0.823,-0.8222,-0.82,-0.8196,-0.821,-0.821,-0.8178,-0.8175,-0.8172,-0.8159,-0.8159,-0.8158,-0.8157,-0.8122,-0.8121,-0.8121,0,0,0,0,0,0,-0.8281,-0.8277,-0.824,-0.8255,-0.825,-0.8233,-0.8224,-0.8221,-0.8215,-0.8196,-0.8193,-0.8207,-0.8178,-0.8174,-0.816,-0.8157,-0.8157,-0.8156,-0.8122,-0.8122,-0.8121,-0.8133,0,0,0,0,0,0,-0.8282,-0.8277,-0.8273,-0.8255,-0.8249,-0.8229,-0.8224,-0.8221,-0.8213,-0.8212,-0.8192,-0.8189,-0.8178,-0.8162,-0.8158,-0.8155,-0.8154,-0.8122,-0.8122,-0.8121,-0.8132,-0.8133,-0.8133,0,0,0,0,0,-0.8284,-0.8277,-0.8273,-0.8269,-0.8244,-0.8229,-0.8226,-0.8214,-0.8213,-0.8208,-0.8197,-0.8189,-0.8158,-0.8161,-0.8156,-0.8153,-0.8122,-0.8122,-0.8121,-0.8132,-0.8133,-0.8133,0,0,0,0,0,0,-0.8295,-0.8274,-0.827,-0.8257,-0.8245,-0.8227,-0.8221,-0.8215,-0.8202,-0.8201,-0.8187,-0.8182,-0.817,-0.816,-0.8163,-0.8142,-0.8139,-0.8138,-0.8149,-0.815,-0.815,-0.8152,-0.8153,0,0,0,0,0,-0.8296,-0.8286,-0.8268,-0.8259,-0.8253,-0.8238,-0.8231,-0.8223,-0.821,-0.8204,-0.8191,-0.8178,-0.8165,-0.8157,-0.8144,-0.8131,-0.8127,-0.8127,-0.8127,-0.8128,-0.8127,-0.812,-0.812,-0.8121,-0.8121,-0.8121,0,0,-0.8297,-0.8285,-0.8279,-0.8261,-0.825,-0.824,-0.8234,-0.8223,-0.8215,-0.8202,-0.8188,-0.8179,-0.8162,-0.8149,-0.8143,-0.8141,-0.8126,-0.8128,-0.8128,-0.8127,-0.812,-0.8119,-0.8119,-0.8121,-0.8121,-0.8121,0,0,-0.8295,-0.8285,-0.8276,-0.8266,-0.8251,-0.8242,-0.824,-0.8223,-0.8216,-0.8202,-0.8193,-0.8183,-0.8161,-0.815,-0.8142,-0.8137,-0.813,-0.8133,-0.8135,-0.8129,-0.8129,-0.8128,-0.8127,-0.8126,-0.8132,-0.8132,-0.8132,0,-0.8299,-0.8283,-0.8272,-0.8262,-0.8254,-0.8244,-0.8235,-0.8225,-0.8206,-0.8201,-0.8199,-0.8173,-0.8161,-0.8145,-0.8144,-0.8138,-0.8135,-0.8135,-0.813,-0.8129,-0.8129,-0.8127,-0.8127,-0.8133,-0.8133,-0.8133,-0.8133,0,-0.8289,-0.8278,-0.8273,-0.8256,-0.8248,-0.8238,-0.8225,-0.8218,-0.8211,-0.8202,-0.8188,-0.8174,-0.8158,-0.8154,-0.8147,-0.8138,-0.8137,-0.8133,-0.8129,-0.813,-0.8128,-0.8127,-0.8134,-0.8133,-0.8133,-0.8133,0,0,-0.8291,-0.827,-0.8268,-0.8261,-0.8244,-0.8235,-0.8225,-0.8211,-0.8205,-0.8193,-0.8184,-0.8167,-0.8163,-0.8154,-0.8145,-0.8139,-0.8137,-0.8136,-0.8135,-0.8136,-0.8126,-0.8129,-0.8128,-0.8132,-0.8132,-0.8132,-0.8127,0,-0.8287,-0.8269,-0.8259,-0.8246,-0.8236,-0.8226,-0.8218,-0.8206,-0.8198,-0.8188,-0.8177,-0.8165,-0.8162,-0.8156,-0.815,-0.8138,-0.8134,-0.8139,-0.8123,-0.8123,-0.8127,-0.8127,-0.813,-0.8126,-0.8126,-0.8126,-0.8126,0,-0.8279,-0.8268,-0.8254,-0.8239,-0.8234,-0.8227,-0.8214,-0.8204,-0.8191,-0.8185,-0.8176,-0.8167,-0.8156,-0.8155,-0.8139,-0.8142,-0.8135,-0.8129,-0.8128,-0.8126,-0.8124,-0.8125,-0.8125,-0.8124,-0.8125,-0.8125,-0.8125,0,-0.8282,-0.8264,-0.8253,-0.8247,-0.823,-0.8225,-0.8217,-0.8204,-0.8197,-0.8185,-0.818,-0.8167,-0.8159,-0.8149,-0.8137,-0.8137,-0.8123,-0.812,-0.8117,-0.8117,-0.8114,-0.8114,-0.8112,-0.811,-0.811,-0.811,-0.811,0,-0.8278,-0.8269,-0.8255,-0.8248,-0.8238,-0.8227,-0.8218,-0.8209,-0.8198,-0.8189,-0.818,-0.8172,-0.8157,-0.8147,-0.8138,-0.8126,-0.8123,-0.8118,-0.8115,-0.8118,-0.8119,-0.8113,-0.8113,-0.811,-0.811,-0.811,-0.811,0,-0.8279,-0.8269,-0.8257,-0.8242,-0.8238,-0.8232,-0.8218,-0.8212,-0.8203,-0.8192,-0.8189,-0.8175,-0.8162,-0.815,-0.8133,-0.8127,-0.8115,-0.8112,-0.812,-0.8119,-0.8116,-0.8117,-0.8111,-0.8109,-0.8108,-0.8108,-0.8108,0,-0.8277,-0.8271,-0.8255,-0.825,-0.8242,-0.8233,-0.8225,-0.8215,-0.8207,-0.8193,-0.8187,-0.8175,-0.8164,-0.8145,-0.8132,-0.812,-0.8116,-0.8115,-0.8114,-0.8117,-0.8116,-0.8116,-0.8115,-0.8115,-0.8115,-0.8115,-0.8115,0,-0.8274,-0.827,-0.826,-0.8249,-0.8241,-0.8231,-0.8221,-0.8217,-0.8204,-0.8196,-0.8184,-0.8176,-0.816,-0.8147,-0.8133,-0.8124,-0.8117,-0.8116,-0.8114,-0.8117,-0.8122,-0.8119,-0.8121,-0.8116,-0.8116,-0.8116,-0.8116,-0.8116,-0.8274,-0.8268,-0.8257,-0.8246,-0.8238,-0.8229,-0.8222,-0.8213,-0.8203,-0.819,-0.8184,-0.8172,-0.8159,-0.814,-0.8132,-0.8122,-0.812,-0.8118,-0.8117,-0.8117,-0.8118,-0.8124,-0.8119,-0.8119,-0.8119,-0.8119,-0.8119,0,-0.827,-0.8263,-0.8254,-0.8241,-0.8233,-0.8228,-0.8217,-0.8211,-0.8201,-0.819,-0.818,-0.8167,-0.8155,-0.8142,-0.813,-0.8124,-0.8121,-0.8121,-0.8121,-0.8119,-0.812,-0.8122,-0.8124,-0.8124,-0.8124,-0.8124,-0.8124,-0.8124,-0.8268,-0.8257,-0.8252,-0.8238,-0.823,-0.8219,-0.8213,-0.8205,-0.8197,-0.8182,-0.8173,-0.8165,-0.8154,-0.8141,-0.8129,-0.8126,-0.8121,-0.8123,-0.8118,-0.8119,-0.8119,-0.8119,-0.8121,-0.8122,-0.8122,-0.8118,-0.8118,-0.8118]},{"header":{"parameterUnit":"m.s-1","parameterCategory":1,"la1":30.2991,"la2":30.254,"lo1":-89.0895,"lo2":-89.0444,"dy":0.0017,"dx":0.0017,"nx":28,"ny":28,"refTime":"2024-06-04T03:00:00:Z","depth":0,"parameterNumber":3,"parameterNumberName":"V-component_of_WINDS"},"data":[0,0,0,0,0,0,0,0,0,0,0,0,0,0,0,0,0,0,0,0,0,0,0,0,0,0,0,0,0,0,0,0,0,0,0,0,0,0,0,0,0,0,0,0,0,0,0,0,0,0,0,0,0,0,0,0,0,0,4.4149,4.4149,0,4.4159,4.4159,4.4159,4.4105,4.4104,4.4102,4.4101,4.4109,4.411,4.4112,0,0,0,0,0,0,0,0,0,0,0,0,0,4.4083,4.4084,4.4149,4.4149,4.415,4.4159,4.4159,4.4159,4.4105,4.4103,4.4102,4.41,4.4108,4.411,4.4112,0,0,0,0,0,0,0,0,0,0,0,0,0,4.4104,4.4085,4.4149,4.4124,4.4122,4.4159,4.4159,4.4159,4.4106,4.4103,4.4101,4.4099,4.4108,4.411,4.4113,4.4174,0,0,4.412,4.4121,0,0,0,0,0,0,0,0,4.4103,4.4106,4.4128,4.4126,4.4123,4.4128,4.4138,4.4164,4.4106,4.4112,4.4101,4.4098,4.4117,4.4119,4.4125,4.4174,4.4175,4.412,4.4122,4.4123,4.4124,0,0,0,0,0,0,0,4.4101,4.4106,4.4153,4.4128,4.4125,4.4111,4.4112,4.4143,4.4127,4.4111,4.4107,4.4109,4.4116,4.4123,4.4125,4.4175,4.412,4.4122,4.4124,4.4125,4.4274,4.4276,0,0,0,0,0,0,4.4103,4.4105,4.4153,4.4153,4.4107,4.4114,4.4115,4.4129,4.4127,4.4124,4.4111,4.4107,4.412,4.4122,4.4125,4.4196,4.4123,4.4125,4.4127,4.4271,4.4274,4.4277,0,0,0,0,0,0,4.4102,4.4108,4.4152,4.4128,4.4133,4.4118,4.4134,4.4131,4.4138,4.4127,4.4124,4.4122,4.4118,4.4122,4.4162,4.4196,4.4126,4.4129,4.4268,4.4272,4.4275,4.4339,0,0,0,0,0,0,4.4101,4.4108,4.4132,4.4129,4.4134,4.419,4.4137,4.4132,4.4143,4.4137,4.4136,4.4134,4.4117,4.4159,4.4165,4.4198,4.4131,4.4265,4.427,4.4274,4.4334,4.4344,4.4353,0,0,0,0,0,4.4098,4.4149,4.4133,4.4139,4.4163,4.4192,4.4195,4.4174,4.4146,4.4169,4.4162,4.4134,4.4192,4.4163,4.417,4.4204,4.4263,4.4269,4.4274,4.4329,4.4342,4.4353,0,0,0,0,0,0,4.4156,4.4148,4.4131,4.4182,4.4188,4.4183,4.4211,4.4189,4.4203,4.4197,4.4171,4.4171,4.4215,4.4214,4.4183,4.4263,4.4222,4.4229,4.4262,4.4274,4.4284,4.4283,4.4133,0,0,0,0,0,4.4175,4.4199,4.4191,4.4237,4.4241,4.4226,4.4237,4.4222,4.4226,4.4228,4.4224,4.4229,4.4248,4.4261,4.4278,4.4334,4.4332,4.436,4.437,4.4378,4.4384,4.4412,4.4424,4.4295,4.4295,4.4295,0,0,4.4214,4.4213,4.4229,4.4249,4.4251,4.4276,4.4228,4.4257,4.4275,4.4232,4.427,4.4267,4.4271,4.4319,4.434,4.4319,4.442,4.4386,4.4392,4.4393,4.4419,4.4432,4.4442,4.4299,4.4298,4.4297,0,0,4.4297,4.4299,4.4337,4.4341,4.4346,4.4335,4.4345,4.4343,4.4339,4.4376,4.4345,4.4366,4.44,4.4404,4.441,4.4495,4.4469,4.4501,4.4552,4.458,4.459,4.4599,4.4628,4.4638,4.4507,4.4508,4.4508,0,4.4344,4.4381,4.436,4.439,4.4399,4.4363,4.4401,4.4405,4.4415,4.4422,4.4399,4.444,4.444,4.4488,4.4509,4.4516,4.4524,4.45,4.459,4.4599,4.4607,4.4634,4.4645,4.4511,4.4511,4.4511,4.451,0,4.4438,4.4464,4.4495,4.4505,4.4518,4.4552,4.4535,4.455,4.4534,4.4525,4.4563,4.4563,4.4579,4.4589,4.4573,4.4634,4.4621,4.4595,4.4553,4.4623,4.4648,4.4659,4.4517,4.4515,4.4514,4.4513,0,0,4.4557,4.4556,4.4567,4.4571,4.4574,4.4593,4.4625,4.4641,4.4654,4.4663,4.4688,4.4718,4.4693,4.47,4.4684,4.4709,4.4775,4.4679,4.4679,4.4696,4.4841,4.486,4.4872,4.4758,4.476,4.4762,4.484,0,4.4637,4.4693,4.4674,4.473,4.4753,4.4719,4.4747,4.4751,4.4744,4.4762,4.4755,4.4776,4.4742,4.4746,4.4769,4.4762,4.4803,4.4756,4.4781,4.4782,4.4779,4.4886,4.4906,4.4979,4.485,4.4852,4.4853,0,4.4738,4.4751,4.4809,4.4807,4.4816,4.4841,4.4854,4.4872,4.4876,4.4869,4.4878,4.4856,4.4887,4.4847,4.4888,4.4856,4.4865,4.4863,4.4866,4.4866,4.4821,4.4887,4.5003,4.5013,4.4868,4.4867,4.4866,0,4.4817,4.4849,4.4887,4.4892,4.4891,4.4909,4.491,4.4912,4.4922,4.4933,4.4939,4.4954,4.4962,4.4973,4.4956,4.4929,4.5,4.4958,4.4994,4.4995,4.5009,4.5009,4.5126,4.5018,4.5018,4.5018,4.5018,0,4.4908,4.4944,4.4922,4.4946,4.4986,4.4964,4.5004,4.5,4.5002,4.5024,4.4996,4.5017,4.4994,4.5012,4.4999,4.5035,4.5039,4.5034,4.5029,4.5035,4.5036,4.504,4.5034,4.5021,4.502,4.502,4.5019,0,4.5002,4.4989,4.5029,4.5025,4.5025,4.5054,4.505,4.5071,4.5063,4.5091,4.5096,4.5083,4.5103,4.5088,4.5108,4.5099,4.5145,4.5135,4.5144,4.5141,4.5177,4.5173,4.53,4.5315,4.5199,4.52,4.5201,0,4.506,4.5088,4.5087,4.5099,4.5101,4.5122,4.5133,4.5113,4.5125,4.5131,4.5152,4.517,4.5183,4.5217,4.5209,4.5224,4.5212,4.5256,4.5214,4.5219,4.5211,4.5209,4.5211,4.5264,4.5265,4.5266,4.5267,0,4.5164,4.5156,4.5173,4.5187,4.5201,4.5211,4.5219,4.5231,4.521,4.5225,4.5246,4.5256,4.5277,4.5295,4.5307,4.5307,4.5283,4.5281,4.529,4.5295,4.5299,4.5296,4.5165,4.5278,4.5277,4.5276,4.5275,4.5275,4.5241,4.5263,4.5266,4.5285,4.5289,4.5297,4.5316,4.531,4.5327,4.5342,4.533,4.5354,4.5357,4.5371,4.5374,4.5392,4.5374,4.5387,4.539,4.5394,4.5398,4.5297,4.5394,4.5394,4.5394,4.5394,4.5393,0,4.5342,4.5342,4.536,4.5372,4.5387,4.5365,4.5372,4.5386,4.5408,4.5412,4.5426,4.5449,4.5467,4.546,4.5475,4.5491,4.5481,4.5496,4.5493,4.5493,4.5414,4.5404,4.5504,4.5504,4.5504,4.5504,4.5504,4.5504,4.5396,4.5432,4.5424,4.5462,4.5461,4.5485,4.5491,4.5498,4.5502,4.5529,4.5544,4.5539,4.5539,4.5554,4.5569,4.5566,4.5572,4.5591,4.5585,4.551,4.5499,4.5489,4.5479,4.5593,4.5593,4.5662,4.5663,4.5663]}]]